Wind_Speed
12 15 19 21 23 26 28 31 33 34 34 37 39 41 42 44 46 48 49 50 51 50 51 52 53 54 54 54 53 53 53 51 49 47 46 47 49 49 49 49 49 49 49
11 14 17 19 22 25 27 29 30 32 34 36 38 40 42 43 44 45 47 49 49 50 49 50 51 52 53 52 52 54 54 53 52 51 50 51 52 52 51 51 51 50 50
11 14 17 18 21 24 26 28 29 31 34 36 37 39 42 43 45 46 47 47 48 49 48 49 49 50 50 51 52 53 54 54 55 55 54 54 54 54 54 53 52 51 51
11 14 16 19 21 24 27 29 31 33 35 37 39 41 43 44 45 46 48 48 49 50 50 50 50 50 50 51 53 54 54 55 56 56 56 56 56 56 56 55 54 53 51
15 16 19 21 24 26 28 31 33 36 38 40 41 43 45 47 48 48 48 50 50 50 51 52 52 52 53 53 54 55 56 57 57 58 58 58 58 57 56 55 54 53 52
19 21 22 24 26 29 31 33 36 38 40 41 43 45 46 48 50 50 51 52 52 53 53 53 54 54 56 57 58 58 59 59 59 60 60 60 59 58 57 56 55 54 52
25 26 27 29 31 33 35 37 39 41 43 45 47 48 50 51 53 54 55 56 56 57 57 57 58 58 59 60 61 62 62 62 61 61 61 60 59 58 57 56 54 52 50
28 30 31 33 35 37 39 41 42 44 46 48 49 51 53 55 56 58 58 59 59 60 60 60 61 62 62 62 62 62 61 61 60 60 59 58 58 58 56 53 51 50 49
31 33 35 36 38 40 41 43 45 46 47 49 51 53 56 57 59 61 62 62 63 62 62 62 63 63 63 62 62 61 61 61 60 59 58 57 56 56 55 53 52 50 49
35 37 39 40 42 43 44 45 47 49 50 52 53 56 58 60 62 64 66 66 66 66 65 64 64 64 63 63 62 62 61 60 60 59 58 57 56 55 55 54 52 50 49
39 41 43 44 46 47 48 50 51 53 54 55 56 58 59 61 63 64 65 66 66 66 66 65 64 64 63 62 63 62 60 59 59 59 59 58 56 55 54 53 51 49 48
43 45 47 49 50 51 52 53 55 56 57 58 59 59 60 60 61 61 63 64 64 64 63 63 63 63 63 63 61 61 60 59 60 61 60 59 58 56 54 52 51 49 46
48 50 51 52 54 54 55 56 56 56 57 58 58 58 59 59 59 59 58 60 60 60 60 61 62 62 63 62 61 61 61 60 60 60 59 58 57 55 53 51 49 48 46
51 52 54 54 55 55 56 56 56 56 56 56 56 57 56 56 56 57 57 57 57 57 57 58 59 60 61 62 61 60 60 60 59 58 56 55 54 52 52 51 49 47 46
53 54 55 55 55 54 55 55 55 55 55 54 53 53 53 52 52 53 53 54 55 55 55 54 55 57 58 59 59 59 59 59 58 56 54 53 53 52 51 50 48 47 45
54 54 54 54 53 54 54 53 54 54 53 53 52 50 49 49 48 49 49 50 52 53 52 51 52 53 54 55 56 57 57 56 55 55 53 53 52 51 50 49 47 46 44
54 53 53 53 53 53 53 52 51 51 52 51 50 48 47 46 45 45 45 45 46 48 48 48 48 48 48 49 51 52 53 53 53 52 52 51 50 49 48 47 46 45 43
53 53 53 53 53 53 53 52 51 50 48 47 46 46 45 44 44 42 42 42 42 43 44 44 45 45 45 46 46 47 48 49 49 49 49 48 47 46 45 45 44 44 43
53 52 52 53 53 53 52 51 50 49 47 45 44 43 43 43 41 39 38 37 37 38 39 40 41 41 41 41 42 43 44 45 46 46 46 46 45 45 44 43 43 42 41
52 52 53 53 53 52 51 50 49 48 46 43 41 40 39 38 36 35 34 32 31 32 33 34 35 36 36 37 38 40 41 42 42 43 43 43 43 43 42 41 41 41 40
52 52 52 52 52 51 50 49 48 46 43 40 37 36 35 33 31 30 30 29 28 27 28 29 30 31 32 33 34 36 37 39 39 40 41 40 40 40 39 39 39 39 38
51 51 51 51 50 50 49 47 45 42 39 36 34 32 31 29 27 27 26 25 24 24 23 24 25 27 28 29 30 31 33 35 37 37 38 38 37 37 37 38 38 38 37
50 50 50 50 49 48 47 45 42 38 35 32 30 28 26 25 24 24 23 21 20 20 20 19 21 23 25 27 28 29 30 33 35 35 36 36 36 36 36 36 36 36 36
50 49 49 48 48 46 44 41 38 35 32 29 27 25 24 22 21 21 20 19 18 18 18 18 18 20 22 24 26 27 28 30 32 34 34 34 35 35 35 35 35 34 34
49 48 48 47 45 43 41 38 35 32 29 27 25 23 22 21 19 18 17 16 16 16 16 16 17 18 20 22 23 25 27 29 30 32 33 32 33 33 32 33 33 34 34
47 47 46 44 42 40 37 35 32 29 26 24 22 21 20 19 17 16 15 14 14 14 14 14 15 17 18 19 21 23 26 27 29 30 31 31 31 31 31 30 31 31 32
Wind_Direction
241 241 241 241 241 242 244 244 244 245 246 247 250 250 250 251 252 252 252 252 252 254 255 256 256 256 256 256 258 258 260 262 263 264 265 266 267 268 269 271 272 273 274
247 247 244 243 245 246 248 249 247 248 250 252 253 253 252 254 254 254 254 254 254 255 256 257 257 257 257 258 258 258 259 260 262 263 264 266 266 267 268 271 271 272 271
261 258 253 250 249 251 252 252 252 254 256 255 255 255 255 257 257 256 256 256 256 256 257 259 258 257 257 257 258 259 259 261 262 262 263 264 265 266 267 268 269 269 269
275 269 264 261 259 257 256 256 256 258 259 258 257 258 258 257 258 259 258 258 258 258 258 259 258 258 257 258 259 259 260 261 262 262 262 263 264 265 266 267 268 267 267
286 282 277 274 270 268 267 266 264 263 263 263 262 262 261 261 260 260 261 261 260 259 259 259 259 259 259 259 259 260 261 262 262 262 262 263 263 263 264 265 265 265 265
291 288 286 283 279 276 274 271 269 268 267 266 265 264 264 264 264 263 263 261 260 260 260 259 259 259 259 259 259 261 262 261 262 261 261 261 261 261 261 261 263 263 263
295 293 290 287 284 280 278 276 275 274 273 270 268 266 266 266 266 266 265 263 262 261 261 260 259 259 259 259 259 260 260 260 260 260 260 260 259 258 258 258 258 259 260
298 295 293 291 289 287 283 280 279 276 275 273 270 269 268 267 267 267 266 265 263 262 262 261 261 261 261 260 259 259 259 259 259 259 258 258 256 255 254 254 254 256 258
301 300 297 295 292 290 287 285 282 280 279 276 274 272 271 269 268 267 266 265 264 263 263 262 261 261 261 260 259 258 257 256 256 256 255 253 253 253 253 253 253 256 257
302 300 299 298 296 294 291 289 286 284 282 280 277 276 274 272 270 268 267 266 265 263 262 261 260 260 259 258 257 257 256 255 254 252 252 252 252 252 252 252 254 254 257
303 302 300 299 297 295 293 290 288 287 284 282 279 278 277 275 273 270 269 267 265 264 262 261 259 258 257 256 256 256 255 253 251 251 251 251 251 251 250 251 254 255 256
304 302 301 300 299 297 295 293 291 289 286 284 282 280 279 277 275 273 270 268 265 263 261 259 258 256 255 254 254 253 251 251 250 250 250 250 250 251 251 252 253 253 254
305 304 303 301 300 299 297 296 294 292 290 288 285 283 281 279 277 274 272 269 267 265 262 259 257 255 254 254 253 252 250 249 249 249 249 248 248 249 248 250 251 252 253
306 305 304 303 302 301 300 298 297 295 293 291 289 286 284 281 278 275 273 270 268 265 263 261 258 255 254 254 252 251 249 249 248 248 248 248 247 247 248 249 251 250 251
308 307 306 306 305 304 302 301 299 298 296 294 292 289 286 283 280 277 274 271 268 265 263 261 259 256 254 253 252 250 248 247 247 246 246 245 245 246 246 247 247 247 248
310 309 308 307 307 306 305 304 302 301 298 297 295 292 289 286 283 279 276 272 268 265 262 260 258 256 254 253 251 249 248 247 245 244 243 242 243 244 245 245 245 245 247
311 311 310 310 309 308 307 306 305 302 301 299 296 294 291 289 286 283 278 274 270 266 262 259 257 255 253 252 250 247 245 243 242 241 241 240 241 242 242 243 243 243 245
313 313 313 312 311 311 310 309 307 305 303 300 297 294 292 290 288 285 281 277 272 266 263 259 256 254 252 250 248 245 242 239 238 238 238 237 237 238 239 240 241 242 244
314 314 314 314 314 313 312 311 310 308 306 302 297 294 293 291 288 286 284 280 274 268 263 259 256 254 251 249 245 242 239 237 236 235 235 236 235 236 237 238 240 241 241
316 316 316 316 316 315 314 313 312 310 307 303 299 297 296 292 289 286 285 282 277 271 265 258 254 251 248 245 241 237 235 234 234 233 233 233 233 233 235 236 237 238 238
318 318 318 318 317 317 316 316 314 312 309 306 302 300 298 295 290 287 286 283 279 273 264 257 251 247 244 241 237 235 232 231 230 230 229 230 231 231 231 232 233 234 235
319 319 319 320 319 319 318 318 317 315 312 309 305 303 301 297 293 289 287 285 280 274 265 257 250 245 240 236 232 230 229 228 227 226 226 227 228 228 228 228 230 232 233
322 321 321 322 322 321 320 320 319 317 315 312 309 306 304 300 296 292 288 284 279 272 264 256 247 240 235 231 228 227 226 224 223 223 223 224 225 225 226 227 229 231 232
323 323 323 323 324 323 322 321 320 318 316 314 311 308 306 303 300 295 290 284 278 269 262 254 244 235 230 227 224 223 221 220 220 219 220 222 222 223 225 227 228 228 229
324 324 324 324 325 325 325 324 323 321 318 315 312 309 307 305 302 298 292 284 276 268 261 251 240 232 227 223 221 220 218 217 216 217 217 218 219 220 223 226 227 228 228
325 326 326 326 326 327 327 326 325 323 321 318 314 312 310 308 304 301 295 284 274 265 257 247 235 226 220 217 216 215 214 212 211 212 214 216 217 219 221 223 225 226 228
Height
5625 5627 5630 5632 5635 5638 5640 5643 5646 5648 5650 5652 5654 5656 5658 5660 5662 5664 5666 5668 5670 5672 5674 5676 5678 5680 5681 5683 5685 5687 5689 5691 5693 5695 5696 5697 5698 5699 5700 5700 5701 5702 5702
5623 5624 5626 5628 5630 5633 5635 5637 5639 5640 5642 5643 5645 5646 5648 5649 5651 5652 5654 5656 5657 5659 5661 5662 5664 5666 5668 5670 5672 5674 5676 5677 5679 5681 5683 5684 5685 5686 5687 5688 5688 5689 5689
5621 5621 5622 5623 5625 5626 5628 5629 5630 5632 5632 5633 5634 5635 5636 5637 5639 5640 5641 5643 5644 5646 5647 5649 5651 5652 5654 5656 5657 5659 5661 5663 5664 5666 5668 5670 5671 5672 5673 5674 5675 5676 5676
5619 5618 5618 5619 5619 5619 5620 5621 5621 5622 5622 5622 5623 5623 5624 5625 5625 5626 5627 5628 5630 5631 5633 5635 5637 5638 5640 5641 5643 5645 5646 5647 5649 5651 5653 5655 5656 5658 5659 5660 5662 5663 5664
5616 5615 5614 5614 5613 5613 5612 5612 5612 5611 5611 5610 5610 5610 5611 5611 5611 5611 5612 5613 5614 5616 5617 5619 5621 5622 5624 5625 5627 5629 5630 5632 5633 5634 5637 5639 5641 5643 5645 5646 5648 5649 5650
5611 5610 5608 5607 5606 5604 5603 5602 5601 5600 5598 5598 5597 5597 5597 5596 5596 5596 5597 5598 5599 5600 5601 5603 5604 5605 5607 5608 5610 5611 5613 5615 5617 5618 5620 5622 5625 5628 5630 5631 5633 5635 5637
5605 5603 5600 5598 5596 5594 5592 5590 5588 5587 5585 5584 5583 5582 5581 5581 5580 5580 5580 5581 5582 5583 5584 5585 5586 5587 5588 5590 5591 5593 5595 5597 5599 5601 5603 5606 5609 5612 5614 5616 5618 5621 5623
5598 5595 5592 5589 5586 5582 5580 5577 5575 5572 5570 5568 5566 5565 5564 5563 5562 5562 5561 5562 5562 5563 5564 5565 5567 5568 5569 5570 5572 5574 5576 5578 5581 5583 5586 5589 5591 5594 5598 5601 5604 5607 5609
5590 5586 5582 5578 5575 5571 5567 5563 5560 5557 5554 5551 5548 5546 5545 5543 5542 5541 5540 5541 5542 5542 5543 5544 5545 5547 5549 5550 5552 5555 5558 5560 5562 5565 5568 5571 5575 5578 5582 5586 5589 5592 5596
5581 5576 5571 5567 5562 5558 5553 5549 5544 5540 5537 5534 5530 5527 5525 5523 5521 5519 5518 5518 5519 5521 5522 5522 5524 5526 5528 5529 5531 5535 5538 5541 5544 5547 5551 5555 5559 5563 5567 5571 5574 5578 5582
5570 5565 5559 5554 5549 5544 5538 5533 5528 5523 5519 5515 5512 5508 5504 5501 5498 5496 5494 5493 5494 5496 5498 5500 5502 5503 5506 5509 5511 5515 5519 5522 5525 5529 5533 5538 5542 5547 5551 5555 5559 5564 5568
5559 5553 5547 5541 5534 5528 5522 5516 5510 5504 5499 5494 5490 5486 5482 5478 5474 5472 5470 5469 5469 5471 5474 5476 5479 5481 5484 5488 5491 5494 5498 5502 5506 5511 5516 5521 5526 5531 5536 5540 5545 5549 5554
5547 5540 5533 5526 5518 5511 5504 5497 5491 5484 5478 5473 5468 5464 5460 5455 5452 5449 5448 5447 5447 5448 5451 5453 5456 5458 5462 5466 5470 5474 5478 5482 5487 5493 5498 5504 5509 5515 5520 5525 5530 5535 5539
5533 5526 5518 5510 5502 5494 5486 5478 5471 5464 5458 5452 5447 5442 5438 5434 5430 5428 5427 5427 5427 5428 5429 5432 5434 5437 5441 5445 5449 5454 5459 5464 5470 5476 5481 5487 5492 5498 5504 5510 5515 5520 5526
5518 5510 5502 5493 5485 5478 5469 5461 5453 5446 5438 5433 5427 5422 5418 5415 5411 5408 5407 5407 5406 5407 5409 5412 5415 5418 5421 5425 5430 5435 5440 5446 5452 5459 5465 5471 5477 5483 5489 5495 5501 5506 5512
5504 5495 5487 5478 5470 5462 5454 5446 5436 5429 5421 5414 5408 5404 5400 5397 5394 5391 5389 5388 5387 5388 5390 5393 5396 5399 5403 5407 5412 5417 5422 5429 5435 5442 5448 5455 5462 5468 5474 5481 5487 5493 5499
5491 5482 5473 5464 5456 5447 5439 5431 5424 5415 5406 5399 5393 5388 5383 5380 5377 5374 5372 5371 5370 5370 5372 5375 5379 5382 5386 5390 5395 5400 5406 5412 5419 5426 5433 5440 5447 5454 5461 5467 5474 5480 5486
5477 5468 5460 5451 5442 5433 5424 5416 5408 5401 5394 5387 5379 5373 5369 5365 5362 5359 5357 5356 5355 5355 5357 5359 5362 5366 5370 5374 5379 5384 5390 5396 5403 5411 5418 5426 5433 5440 5447 5454 5461 5467 5473
5465 5456 5447 5438 5429 5420 5411 5402 5394 5387 5380 5373 5367 5361 5356 5351 5348 5345 5343 5341 5341 5341 5342 5345 5348 5351 5355 5359 5364 5370 5376 5383 5390 5398 5405 5413 5420 5428 5435 5442 5449 5455 5461
5452 5443 5434 5425 5416 5407 5398 5390 5381 5373 5366 5359 5354 5348 5343 5339 5336 5334 5331 5329 5328 5329 5330 5332 5335 5338 5342 5346 5352 5357 5364 5371 5378 5386 5394 5401 5409 5416 5423 5430 5437 5443 5450
5440 5431 5422 5413 5404 5395 5386 5377 5369 5361 5354 5347 5342 5336 5332 5328 5326 5323 5321 5319 5318 5318 5319 5321 5324 5327 5331 5336 5341 5347 5354 5361 5368 5375 5383 5391 5398 5405 5412 5419 5426 5432 5438
5429 5420 5411 5402 5393 5384 5375 5366 5358 5350 5343 5337 5332 5327 5323 5319 5317 5315 5313 5311 5310 5310 5311 5313 5315 5319 5323 5327 5332 5338 5344 5351 5358 5366 5373 5381 5388 5395 5402 5409 5415 5422 5428
5418 5409 5400 5391 5382 5373 5364 5356 5348 5341 5334 5329 5324 5320 5316 5312 5310 5307 5305 5304 5303 5304 5304 5306 5308 5312 5316 5320 5325 5331 5337 5343 5350 5357 5365 5372 5379 5386 5393 5400 5406 5412 5419
5408 5399 5390 5381 5372 5363 5354 5346 5339 5333 5327 5322 5317 5313 5310 5306 5304 5301 5299 5298 5298 5298 5299 5301 5303 5306 5310 5314 5319 5324 5330 5336 5343 5350 5357 5364 5371 5378 5385 5391 5397 5403 5409
5398 5390 5381 5372 5363 5355 5346 5339 5332 5326 5321 5316 5312 5308 5304 5301 5299 5296 5294 5293 5293 5294 5295 5296 5298 5301 5305 5309 5314 5319 5324 5330 5336 5343 5350 5357 5364 5371 5377 5383 5389 5395 5401
5389 5380 5372 5363 5355 5347 5339 5332 5326 5320 5315 5311 5307 5303 5300 5297 5294 5292 5290 5290 5289 5290 5291 5292 5294 5297 5301 5305 5309 5314 5319 5325 5331 5337 5344 5351 5358 5364 5370 5376 5382 5387 5393